Weather History for Kelso-Longview, WA

Change the Weather History Date:

Sunday, October 20, 2013

  Actual Average Record
Temperature  
Mean Temperature 50 °F -  
Max Temperature 55 °F 57 °F 73 °F (2003)
Min Temperature 44 °F 42 °F 33 °F (1998)
Degree Days  
Heating Degree Days 16    
Moisture  
Dew Point 43 °F    
Average Humidity 82    
Maximum Humidity 87    
Minimum Humidity 67    
Precipitation  
Precipitation 0.00 in - - ()
Sea Level Pressure  
Sea Level Pressure 30.18 in    
Wind  
Wind Speed 5 mph (WNW)    
Max Wind Speed 7 mph    
Max Gust Speed -    
Visibility 10 miles    
Events      
Averages and records for this station are not official NWS values.
T = Trace of Precipitation, MM = Missing Value Source: NWS Daily Summary

Daily Weather History Graph

Daily Weather History Graph

Search for Another Location

Airport:

Trip Planner

Search our weather history database for the weather conditions in past years. The results will help you decide how hot, cold, wet, or windy it might be!

Date:

Astronomy

Oct. 20, 2013 Rise Set
Actual Time 7:35 AM PDT 6:15 PM PDT
Civil Twilight 7:05 AM PDT 6:46 PM PDT
Nautical Twilight 6:30 AM PDT 7:21 PM PDT
Astronomical Twilight 5:55 AM PDT 7:55 PM PDT
Moon 7:21 PM PDT (10/20) 9:25 AM PDT (10/20)
Length of Visible Light 11h 40m
Length of Day
10h 39m
Waning Gibbous, 97% of the Moon is Illuminated
Oct 20
Waning Gibbous
Oct 26
Last Quarter
Nov 3
New
Nov 9
First Quarter
Nov 17
Full

Hourly Weather History & Observations

Time (PDT) Temp. Dew Point Humidity Pressure Visibility Wind Dir Wind Speed Gust Speed Precip Events Conditions
12:15 AM 48.2 °F 44.6 °F 87% 30.20 in 10.0 mi North - - N/A   Overcast
12:35 AM 48.2 °F 44.6 °F 87% 30.20 in 10.0 mi North - - N/A   Overcast
12:55 AM 48.2 °F 44.6 °F 87% 30.20 in 9.0 mi North - - N/A   Overcast
1:15 AM 48.2 °F 42.8 °F 82% 30.20 in 10.0 mi North - - N/A   Overcast
1:35 AM 46.4 °F 42.8 °F 87% 30.20 in 10.0 mi North - - N/A   Overcast
1:55 AM 46.4 °F 42.8 °F 87% 30.21 in 10.0 mi North - - N/A   Overcast
2:15 AM 46.4 °F 42.8 °F 87% 30.21 in 10.0 mi North - - N/A   Overcast
2:35 AM 46.4 °F 42.8 °F 87% 30.21 in 10.0 mi North - - N/A   Overcast
2:55 AM 46.4 °F 42.8 °F 87% 30.21 in 10.0 mi North - - N/A   Overcast
3:15 AM 46.4 °F 42.8 °F 87% 30.21 in 10.0 mi North - - N/A   Overcast
3:35 AM 46.4 °F 42.8 °F 87% 30.20 in 10.0 mi North - - N/A   Overcast
3:55 AM 46.4 °F 42.8 °F 87% 30.20 in 10.0 mi North - - N/A   Overcast
4:15 AM 46.4 °F 42.8 °F 87% 30.20 in 10.0 mi North - - N/A   Overcast
4:35 AM 46.4 °F 42.8 °F 87% 30.19 in 10.0 mi North - - N/A   Overcast
4:55 AM 46.4 °F 42.8 °F 87% 30.20 in 10.0 mi North - - N/A   Overcast
5:15 AM 46.4 °F 42.8 °F 87% 30.20 in 10.0 mi North - - N/A   Overcast
5:35 AM 46.4 °F 41.0 °F 81% 30.20 in 10.0 mi North - - N/A   Overcast
5:55 AM 46.4 °F 41.0 °F 81% 30.20 in 10.0 mi North - - N/A   Overcast
6:15 AM 44.6 °F 41.0 °F 87% 30.20 in 10.0 mi North - - N/A   Overcast
6:35 AM 44.6 °F 41.0 °F 87% 30.20 in 10.0 mi North - - N/A   Overcast
6:55 AM 44.6 °F 41.0 °F 87% 30.20 in 10.0 mi North - - N/A   Overcast
7:15 AM 44.6 °F 41.0 °F 87% 30.20 in 10.0 mi North - - N/A   Overcast
7:35 AM 44.6 °F 41.0 °F 87% 30.20 in 10.0 mi North - - N/A   Overcast
7:55 AM 44.6 °F 41.0 °F 87% 30.20 in 10.0 mi North - - N/A   Overcast
8:15 AM 44.6 °F 41.0 °F 87% 30.21 in 10.0 mi North - - N/A   Overcast
8:35 AM 44.6 °F 41.0 °F 87% 30.21 in 10.0 mi North - - N/A   Overcast
8:55 AM 44.6 °F 41.0 °F 87% 30.22 in 10.0 mi North - - N/A   Overcast
9:15 AM 46.4 °F 41.0 °F 81% 30.22 in 10.0 mi North - - N/A   Overcast
9:35 AM 46.4 °F 41.0 °F 81% 30.21 in 10.0 mi North - - N/A   Overcast
9:55 AM 46.4 °F 41.0 °F 81% 30.21 in 10.0 mi North - - N/A   Overcast
10:15 AM 46.4 °F 41.0 °F 81% 30.21 in 10.0 mi North - - N/A   Overcast
10:35 AM 46.4 °F 41.0 °F 81% 30.21 in 10.0 mi North - - N/A   Overcast
10:55 AM 48.2 °F 42.8 °F 82% 30.21 in 10.0 mi North - - N/A   Overcast
11:15 AM 48.2 °F 41.0 °F 76% 30.21 in 10.0 mi North - - N/A   Overcast
11:35 AM 48.2 °F 42.8 °F 82% 30.20 in 10.0 mi North - - N/A   Overcast
11:55 AM 50.0 °F 42.8 °F 76% 30.20 in 10.0 mi North - - N/A   Overcast
12:15 PM 51.8 °F 42.8 °F 71% 30.20 in 10.0 mi WNW 4.6 mph - N/A   Scattered Clouds
12:35 PM 51.8 °F 42.8 °F 71% 30.19 in 10.0 mi WNW 6.9 mph - N/A   Clear
12:55 PM 51.8 °F 42.8 °F 71% 30.19 in 10.0 mi North - - N/A   Clear
1:15 PM 51.8 °F 42.8 °F 71% 30.19 in 10.0 mi North - - N/A   Clear
1:35 PM 51.8 °F 44.6 °F 76% 30.18 in 10.0 mi North - - N/A   Clear
1:55 PM 53.6 °F 44.6 °F 72% 30.17 in 10.0 mi North - - N/A   Clear
2:15 PM 53.6 °F 44.6 °F 72% 30.17 in 10.0 mi North - - N/A   Clear
2:35 PM 53.6 °F 44.6 °F 72% 30.16 in 10.0 mi North - - N/A   Clear
2:55 PM 53.6 °F 44.6 °F 72% 30.16 in 10.0 mi North - - N/A   Clear
3:15 PM 55.4 °F 44.6 °F 67% 30.15 in 10.0 mi North - - N/A   Clear
3:35 PM 53.6 °F 44.6 °F 72% 30.15 in 10.0 mi North - - N/A   Clear
3:55 PM 53.6 °F 44.6 °F 72% 30.15 in 10.0 mi North - - N/A   Clear
4:15 PM 53.6 °F 44.6 °F 72% 30.15 in 10.0 mi North - - N/A   Clear
4:35 PM 53.6 °F 44.6 °F 72% 30.15 in 10.0 mi North - - N/A   Clear
4:55 PM 53.6 °F 44.6 °F 72% 30.14 in 10.0 mi North - - N/A   Clear
5:15 PM 51.8 °F 44.6 °F 76% 30.14 in 10.0 mi North - - N/A   Clear
5:35 PM 51.8 °F 44.6 °F 76% 30.14 in 10.0 mi North - - N/A   Clear
5:55 PM 50.0 °F 44.6 °F 82% 30.14 in 10.0 mi North - - N/A   Clear
6:15 PM 50.0 °F 44.6 °F 82% 30.14 in 10.0 mi North - - N/A   Partly Cloudy
6:35 PM 48.2 °F 44.6 °F 87% 30.14 in 10.0 mi North - - N/A   Scattered Clouds
6:55 PM 48.2 °F 44.6 °F 87% 30.14 in 10.0 mi North - - N/A   Mostly Cloudy
7:15 PM 48.2 °F 44.6 °F 87% 30.14 in 10.0 mi North - - N/A   Mostly Cloudy
7:35 PM 48.2 °F 44.6 °F 87% 30.14 in 10.0 mi North - - N/A   Mostly Cloudy
7:55 PM 48.2 °F 44.6 °F 87% 30.14 in 10.0 mi North - - N/A   Overcast
8:15 PM 48.2 °F 44.6 °F 87% 30.14 in 10.0 mi North - - N/A   Overcast
8:35 PM 48.2 °F 44.6 °F 87% 30.14 in 10.0 mi North - - N/A   Overcast
8:55 PM 48.2 °F 44.6 °F 87% 30.15 in 10.0 mi North - - N/A   Overcast
9:15 PM 48.2 °F 44.6 °F 87% 30.15 in 7.0 mi North - - N/A   Overcast
9:35 PM 48.2 °F 44.6 °F 87% 30.15 in 8.0 mi North - - N/A   Overcast
9:55 PM 48.2 °F 44.6 °F 87% 30.15 in 7.0 mi North - - N/A   Overcast
10:15 PM 48.2 °F 44.6 °F 87% 30.15 in 7.0 mi North - - N/A   Overcast
10:35 PM 48.2 °F 44.6 °F 87% 30.15 in 8.0 mi North - - N/A   Overcast
10:55 PM 48.2 °F 44.6 °F 87% 30.15 in 8.0 mi North - - N/A   Overcast
11:15 PM 48.2 °F 44.6 °F 87% 30.15 in 10.0 mi North - - N/A   Overcast
11:35 PM 48.2 °F 44.6 °F 87% 30.15 in 8.0 mi North - - N/A   Overcast
11:55 PM 48.2 °F 44.6 °F 87% 30.15 in 7.0 mi North - - N/A   Overcast